[[{"header":{"parameterUnit":"m.s-1","parameterCategory":1,"la1":30.2991,"la2":30.254,"lo1":-89.0895,"lo2":-89.0444,"dy":0.0017,"dx":0.0017,"nx":28,"ny":28,"refTime":"2025-04-07T09:00:00:Z","depth":0,"parameterNumber":2,"parameterNumberName":"U-component_of_WINDS"},"data":[0,0,0,0,0,0,0,0,0,0,0,0,0,0,0,0,0,0,0,0,0,0,0,0,0,0,0,0,0,0,0,0,0,0,0,0,0,0,0,0,0,0,0,0,0,0,0,0,0,0,0,0,0,0,0,0,0,0,0.495,0.4949,0,0.4869,0.4868,0.4867,0.4873,0.4875,0.4876,0.4877,0.4788,0.4785,0.4781,0,0,0,0,0,0,0,0,0,0,0,0,0,0.5107,0.5104,0.495,0.4949,0.4948,0.4869,0.4868,0.4866,0.4873,0.4875,0.4876,0.4878,0.4789,0.4785,0.4781,0,0,0,0,0,0,0,0,0,0,0,0,0,0.5033,0.5103,0.495,0.4942,0.494,0.4869,0.4868,0.4866,0.4873,0.4875,0.4877,0.4878,0.4791,0.4786,0.478,0.471,0,0,0.4764,0.4762,0,0,0,0,0,0,0,0,0.5037,0.5027,0.4944,0.4942,0.494,0.4883,0.489,0.4814,0.4872,0.4898,0.4877,0.4879,0.4818,0.481,0.4791,0.4706,0.4702,0.4764,0.476,0.4758,0.4757,0,0,0,0,0,0,0,0.5042,0.5031,0.4918,0.4943,0.4941,0.4941,0.4932,0.4876,0.4848,0.4896,0.4896,0.4887,0.4817,0.4796,0.4789,0.4701,0.4764,0.4759,0.4756,0.4754,0.4554,0.4552,0,0,0,0,0,0,0.505,0.5035,0.492,0.4915,0.4995,0.4936,0.4927,0.49,0.4849,0.4843,0.4886,0.4888,0.4804,0.4795,0.4786,0.47,0.4758,0.4753,0.475,0.4557,0.4554,0.4552,0,0,0,0,0,0,0.5053,0.504,0.4923,0.4975,0.496,0.4932,0.4901,0.4897,0.4876,0.4841,0.4836,0.4869,0.4805,0.4793,0.4729,0.4697,0.4751,0.4746,0.4559,0.4556,0.4553,0.4528,0,0,0,0,0,0,0.5058,0.5041,0.5015,0.4975,0.4958,0.4869,0.4899,0.4894,0.4867,0.4869,0.4824,0.4819,0.4806,0.4737,0.4724,0.4691,0.4742,0.4562,0.4558,0.4554,0.4531,0.4524,0.4518,0,0,0,0,0,0.5063,0.501,0.5014,0.5,0.4925,0.4868,0.4858,0.4846,0.4865,0.4837,0.4816,0.482,0.4703,0.4731,0.4716,0.468,0.4564,0.4559,0.4554,0.4534,0.4526,0.4518,0,0,0,0,0,0,0.5045,0.5004,0.5008,0.494,0.4908,0.4869,0.4834,0.4837,0.4797,0.48,0.4785,0.4775,0.471,0.4689,0.4721,0.461,0.4636,0.4628,0.4626,0.4617,0.4611,0.4616,0.4738,0,0,0,0,0,0.5033,0.4992,0.4958,0.4901,0.4885,0.4863,0.4837,0.4831,0.4796,0.4782,0.4755,0.4719,0.4674,0.4645,0.4602,0.4529,0.4519,0.4498,0.4491,0.4486,0.4478,0.4438,0.4428,0.4536,0.4536,0.4536,0,0,0.5008,0.4981,0.4955,0.4897,0.4871,0.4827,0.4851,0.4803,0.477,0.4774,0.4712,0.4691,0.465,0.4582,0.455,0.4562,0.4447,0.448,0.4476,0.4471,0.4432,0.4422,0.4413,0.4533,0.4533,0.4534,0,0,0.4939,0.4915,0.4865,0.4839,0.48,0.4786,0.4774,0.4735,0.4722,0.4661,0.4663,0.4623,0.4546,0.4517,0.4492,0.4414,0.4417,0.4401,0.4365,0.4326,0.4317,0.431,0.4281,0.4271,0.4394,0.4394,0.4394,0,0.4911,0.4846,0.4838,0.479,0.4764,0.4769,0.4717,0.4692,0.464,0.4622,0.4637,0.4541,0.4514,0.4439,0.442,0.44,0.4385,0.4405,0.432,0.4312,0.4304,0.4277,0.4266,0.4392,0.4392,0.4393,0.4393,0,0.4814,0.4769,0.4733,0.4686,0.4656,0.4606,0.4589,0.456,0.4557,0.4541,0.4478,0.4446,0.4397,0.4379,0.4375,0.4303,0.4311,0.4323,0.4348,0.4292,0.4266,0.4255,0.439,0.439,0.4391,0.4391,0,0,0.4728,0.4679,0.4665,0.4644,0.4602,0.4567,0.4517,0.4471,0.4446,0.4411,0.4368,0.4304,0.4315,0.4287,0.428,0.4246,0.4185,0.4262,0.426,0.4247,0.4103,0.4093,0.4081,0.4188,0.4186,0.4184,0.4106,0,0.4654,0.4568,0.456,0.4482,0.444,0.4445,0.4402,0.4371,0.4355,0.4316,0.4298,0.4253,0.4272,0.4255,0.4221,0.42,0.4156,0.4206,0.4146,0.4144,0.4154,0.4068,0.4057,0.3984,0.4096,0.4094,0.4093,0,0.4555,0.4519,0.4438,0.4403,0.4385,0.4347,0.4304,0.4267,0.4232,0.4223,0.4193,0.4191,0.4139,0.4169,0.4096,0.413,0.4106,0.4092,0.4088,0.408,0.4113,0.4056,0.3961,0.395,0.4077,0.4078,0.4079,0,0.4499,0.443,0.4373,0.4354,0.4313,0.4285,0.4266,0.4234,0.4207,0.4169,0.4151,0.4108,0.4083,0.4049,0.4035,0.4058,0.3963,0.3991,0.3952,0.3953,0.393,0.3931,0.3828,0.3917,0.3918,0.3918,0.3918,0,0.4415,0.4365,0.4347,0.4311,0.4255,0.4246,0.419,0.4172,0.4144,0.4104,0.4106,0.4068,0.4052,0.4012,0.4001,0.3942,0.3931,0.3921,0.3918,0.392,0.3921,0.3902,0.3905,0.3915,0.3916,0.3916,0.3917,0,0.4341,0.4328,0.4265,0.4232,0.4222,0.4182,0.4153,0.4118,0.4104,0.4054,0.4041,0.4018,0.3971,0.3954,0.3896,0.3889,0.382,0.3822,0.3832,0.3831,0.3792,0.3796,0.3672,0.3655,0.3757,0.3756,0.3755,0,0.4288,0.425,0.4213,0.4187,0.4168,0.4127,0.41,0.409,0.4062,0.402,0.399,0.3944,0.3906,0.383,0.3807,0.3763,0.3763,0.3723,0.3756,0.3759,0.376,0.3762,0.3758,0.3715,0.3714,0.3713,0.3713,0,0.4194,0.419,0.4152,0.4111,0.408,0.4047,0.4016,0.3994,0.398,0.3948,0.3901,0.3872,0.3814,0.3767,0.3722,0.3701,0.3704,0.3703,0.3692,0.3691,0.3698,0.3693,0.3813,0.3705,0.3706,0.3707,0.3707,0.3707,0.4127,0.4094,0.4063,0.4021,0.3997,0.3968,0.3933,0.3916,0.3877,0.383,0.3827,0.3776,0.3742,0.3683,0.366,0.3619,0.363,0.3613,0.3609,0.3604,0.3601,0.3707,0.3611,0.3611,0.3612,0.3612,0.3612,0,0.4032,0.4013,0.3975,0.3932,0.3899,0.3907,0.3873,0.3844,0.3799,0.3769,0.3733,0.3679,0.3634,0.3609,0.3564,0.3536,0.3536,0.3524,0.3525,0.352,0.3594,0.3608,0.3525,0.3525,0.3525,0.3525,0.3525,0.3525,0.3979,0.3922,0.3914,0.3845,0.3827,0.3778,0.3758,0.373,0.3706,0.3646,0.361,0.3595,0.3566,0.352,0.3479,0.3473,0.3455,0.3442,0.3437,0.3506,0.3515,0.3523,0.3536,0.3439,0.3439,0.3366,0.3365,0.3365]},{"header":{"parameterUnit":"m.s-1","parameterCategory":1,"la1":30.2991,"la2":30.254,"lo1":-89.0895,"lo2":-89.0444,"dy":0.0017,"dx":0.0017,"nx":28,"ny":28,"refTime":"2025-04-07T09:00:00:Z","depth":0,"parameterNumber":3,"parameterNumberName":"V-component_of_WINDS"},"data":[0,0,0,0,0,0,0,0,0,0,0,0,0,0,0,0,0,0,0,0,0,0,0,0,0,0,0,0,0,0,0,0,0,0,0,0,0,0,0,0,0,0,0,0,0,0,0,0,0,0,0,0,0,0,0,0,0,0,-4.3589,-4.359,0,-4.3744,-4.3746,-4.3747,-4.3682,-4.3678,-4.3675,-4.3671,-4.3826,-4.3834,-4.3841,0,0,0,0,0,0,0,0,0,0,0,0,0,-4.3231,-4.3238,-4.3588,-4.359,-4.3592,-4.3744,-4.3746,-4.3748,-4.3683,-4.3678,-4.3674,-4.3669,-4.3824,-4.3833,-4.3842,0,0,0,0,0,0,0,0,0,0,0,0,0,-4.3386,-4.3241,-4.3588,-4.3578,-4.3579,-4.3743,-4.3746,-4.3748,-4.3684,-4.3678,-4.3673,-4.3667,-4.3821,-4.3832,-4.3843,-4.4025,0,0,-4.3878,-4.3883,0,0,0,0,0,0,0,0,-4.3378,-4.34,-4.3578,-4.3579,-4.358,-4.3688,-4.3677,-4.3841,-4.3685,-4.3644,-4.3671,-4.3665,-4.3784,-4.3798,-4.384,-4.4032,-4.4039,-4.3879,-4.3886,-4.3891,-4.3894,0,0,0,0,0,0,0,-4.3367,-4.3393,-4.365,-4.358,-4.3582,-4.3565,-4.358,-4.3707,-4.3743,-4.3647,-4.3643,-4.3662,-4.3784,-4.3829,-4.3843,-4.4041,-4.3879,-4.3889,-4.3896,-4.39,-4.439,-4.4396,0,0,0,0,0,0,-4.3357,-4.3384,-4.3645,-4.3654,-4.3463,-4.3576,-4.3593,-4.3659,-4.3742,-4.3749,-4.3667,-4.3658,-4.3812,-4.383,-4.3848,-4.4067,-4.3891,-4.3901,-4.3908,-4.4384,-4.4391,-4.4398,0,0,0,0,0,0,-4.3349,-4.3381,-4.3638,-4.3518,-4.355,-4.3588,-4.3662,-4.3665,-4.371,-4.3757,-4.3762,-4.3706,-4.3809,-4.3832,-4.3982,-4.4071,-4.3906,-4.3917,-4.4377,-4.4386,-4.4395,-4.4505,0,0,0,0,0,0,-4.3339,-4.3378,-4.3449,-4.352,-4.3556,-4.3771,-4.3667,-4.3672,-4.373,-4.3721,-4.3795,-4.3802,-4.3806,-4.3965,-4.3993,-4.4084,-4.3926,-4.4369,-4.4381,-4.4392,-4.4494,-4.4517,-4.4537,0,0,0,0,0,-4.3327,-4.3473,-4.3453,-4.3485,-4.3646,-4.3777,-4.3797,-4.3799,-4.3738,-4.3808,-4.3838,-4.38,-4.4057,-4.3981,-4.4012,-4.4107,-4.4363,-4.4377,-4.4391,-4.4484,-4.4512,-4.4536,0,0,0,0,0,0,-4.341,-4.3482,-4.3461,-4.3635,-4.37,-4.3765,-4.3854,-4.3829,-4.3913,-4.39,-4.3898,-4.3916,-4.407,-4.4103,-4.4018,-4.4287,-4.42,-4.4221,-4.426,-4.4288,-4.4309,-4.4298,-4.3935,0,0,0,0,0,-4.3449,-4.355,-4.3607,-4.3755,-4.3789,-4.3817,-4.3873,-4.387,-4.3937,-4.3964,-4.4005,-4.407,-4.4165,-4.4228,-4.4318,-4.4498,-4.4512,-4.4578,-4.46,-4.4617,-4.4636,-4.4732,-4.4762,-4.4444,-4.4443,-4.4443,0,0,-4.3529,-4.3581,-4.3645,-4.3773,-4.3823,-4.3928,-4.384,-4.3954,-4.4031,-4.398,-4.4125,-4.4157,-4.423,-4.4395,-4.447,-4.4428,-4.4727,-4.4635,-4.4649,-4.4658,-4.475,-4.478,-4.4807,-4.4453,-4.4451,-4.445,0,0,-4.373,-4.378,-4.3909,-4.3961,-4.4039,-4.4056,-4.4087,-4.4156,-4.4176,-4.4321,-4.4286,-4.4376,-4.454,-4.4593,-4.4642,-4.4863,-4.483,-4.4892,-4.5005,-4.5099,-4.5124,-4.5147,-4.5225,-4.5253,-4.4909,-4.491,-4.491,0,-4.382,-4.3977,-4.3977,-4.4095,-4.4152,-4.4112,-4.4242,-4.4292,-4.4395,-4.4434,-4.4385,-4.4591,-4.4637,-4.4814,-4.4868,-4.4909,-4.4943,-4.4883,-4.5121,-4.5143,-4.5164,-4.5239,-4.5268,-4.4917,-4.4916,-4.4915,-4.4914,0,-4.4084,-4.4193,-4.4288,-4.439,-4.4457,-4.458,-4.4597,-4.4665,-4.4655,-4.4677,-4.4824,-4.4878,-4.4979,-4.502,-4.5011,-4.5196,-4.5168,-4.512,-4.5033,-4.5201,-4.5272,-4.53,-4.4927,-4.4924,-4.4922,-4.492,0,0,-4.4342,-4.4443,-4.4477,-4.4523,-4.4605,-4.4689,-4.4809,-4.4909,-4.4967,-4.5039,-4.5139,-4.5279,-4.5236,-4.5291,-4.5287,-4.537,-4.5541,-4.5312,-4.5314,-4.5353,-4.5748,-4.5783,-4.5817,-4.552,-4.5525,-4.553,-4.5742,0,-4.4549,-4.4762,-4.4766,-4.496,-4.5061,-4.5024,-4.5129,-4.519,-4.5214,-4.5301,-4.5326,-4.5425,-4.5361,-4.5394,-4.5474,-4.5503,-4.562,-4.5488,-4.5612,-4.5617,-4.5596,-4.5853,-4.5891,-4.6089,-4.5769,-4.5774,-4.5777,0,-4.4819,-4.4901,-4.5107,-4.5175,-4.5217,-4.5311,-4.5403,-4.5487,-4.5555,-4.5566,-4.5628,-4.5612,-4.5733,-4.5641,-4.5808,-4.5718,-4.5768,-4.579,-4.5798,-4.581,-4.5707,-4.5872,-4.6152,-4.6182,-4.582,-4.5817,-4.5814,0,-4.4987,-4.5149,-4.5292,-4.5332,-4.5415,-4.5482,-4.552,-4.5582,-4.5642,-4.5721,-4.5759,-4.5851,-4.5902,-4.5972,-4.598,-4.5913,-4.6148,-4.6057,-4.6159,-4.616,-4.6211,-4.6208,-4.6503,-4.6243,-4.6243,-4.6242,-4.6242,0,-4.5218,-4.5345,-4.5369,-4.5458,-4.5598,-4.5601,-4.5739,-4.5771,-4.5827,-4.592,-4.5893,-4.598,-4.5986,-4.6075,-4.6082,-4.6219,-4.6241,-4.6253,-4.6253,-4.6256,-4.6255,-4.6289,-4.6276,-4.625,-4.6248,-4.6247,-4.6246,0,-4.543,-4.5451,-4.5605,-4.5671,-4.5691,-4.5792,-4.5847,-4.5931,-4.5951,-4.6069,-4.6097,-4.6129,-4.6233,-4.6248,-4.6369,-4.6373,-4.6537,-4.6523,-4.6515,-4.6513,-4.6615,-4.6605,-4.6943,-4.6988,-4.6699,-4.6702,-4.6704,0,-4.5576,-4.5673,-4.575,-4.5811,-4.5852,-4.5951,-4.6012,-4.6017,-4.6081,-4.6166,-4.6239,-4.6341,-4.6422,-4.6589,-4.6622,-4.6714,-4.6702,-4.6814,-4.6716,-4.6715,-4.6704,-4.6698,-4.6708,-4.6833,-4.6836,-4.6839,-4.6841,0,-4.5834,-4.584,-4.5929,-4.6023,-4.6097,-4.617,-4.624,-4.6291,-4.6304,-4.6378,-4.6484,-4.6548,-4.6672,-4.6772,-4.6864,-4.69,-4.6873,-4.6872,-4.69,-4.6904,-4.6896,-4.6902,-4.6567,-4.6864,-4.6862,-4.686,-4.6859,-4.6858,-4.6018,-4.6102,-4.617,-4.627,-4.6323,-4.6389,-4.6471,-4.6502,-4.6591,-4.6694,-4.6691,-4.6808,-4.6872,-4.6992,-4.7035,-4.7125,-4.7089,-4.713,-4.7141,-4.7151,-4.7161,-4.6881,-4.7142,-4.7141,-4.714,-4.714,-4.714,0,-4.6274,-4.6316,-4.6408,-4.6507,-4.6586,-4.6555,-4.6629,-4.6697,-4.6801,-4.6864,-4.6945,-4.7067,-4.7164,-4.7205,-4.73,-4.7364,-4.7354,-4.7389,-4.7384,-4.7393,-4.7188,-4.7154,-4.7395,-4.7395,-4.7395,-4.7395,-4.7395,-4.7395,-4.6417,-4.6559,-4.6572,-4.6739,-4.6779,-4.6895,-4.694,-4.7,-4.705,-4.7188,-4.727,-4.7296,-4.735,-4.7448,-4.7536,-4.7545,-4.7581,-4.7621,-4.7625,-4.7433,-4.7408,-4.7383,-4.7351,-4.7629,-4.763,-4.7822,-4.7824,-4.7825]}]]